Volver al catálogo

YZ-1 R/B

ActivoMEO
NORAD 40751·ROCKET BODY·🇨🇳 China

Lanzado Jul 25, 2015 desde Xichang Satellite Launch Center

Loading…

Próximos Pases (próximas 24 horas)

TLE

ActualizadoSource: Space-Track

Época: Sep 8, 2026, 10:05 UTC

1 40751U 15037D   26251.42019031 -.00000109  00000-0  00000-0 0  9990
2 40751  56.3606 340.6226 1022984  76.9040 294.3028  1.56590954 63630

Sigue YZ-1 R/B en tiempo real con AllMySat

Download on the App Store